Notices

What's New in latest Release from April 7th, 2021:

- Updated Glossary, including Speed of Maximum Gust, and Total Hourly Precipitation

- Updated national and regional climate services offices contacts and prices information

- Addition of station inventory lists for 1981-2010, 1971-2000, and 1961-1990 Normals.

If you haven't already, please take our survey and provide feedback about our website: https://eccc.sondage-survey.ca/f/LanguageSelection.aspx?s=442ca660-fcf1-47c0-95a9-59707d6fd709

Hourly Data Report for November 27, 2019

SAINT JOHN A
NEW BRUNSWICK
Current Station Operator: NAVCAN

45°18'58.000" N
65°53'24.000" W
108.80 m
8104901
71609
YSJ

Download Data

Hourly Data (November 2019)
Hourly Data Report for November 27, 2019
TIME
LST
Temp Definition
°C
Dew Point Definition
°C
Rel Hum Definition
%
Precip. Amount Definition
mm

Wind Dir Definition
10's deg

Wind Spd Definition
km/h
Visibility Definition
km
Stn Press Definition
kPa
Hmdx Definition


Wind Chill Definition


Weather Definition


00:00 5.1 3.4 89   25 9 24.1 99.97     LegendNANA
01:00 5.0 2.8 86   29 18 24.1 100.00     LegendNANA
02:00 5.4 1.8 77   30 24 19.3 100.09     Mainly Clear
03:00 4.9 1.2 77   30 24 19.3 100.17     LegendNANA
04:00 4.8 1.1 77   30 12 24.1 100.19     LegendNANA
05:00 4.2 0.8 78   31 13 24.1 100.26     Mostly Cloudy
06:00 3.5 0.6 81   31 17 24.1 100.28     LegendNANA
07:00 2.9 0.1 82   30 17 24.1 100.37     LegendNANA
08:00 2.4 0.2 85   31 10 24.1 100.43     Clear
09:00 3.1 1.1 87   31 10 24.1 100.45     LegendNANA
10:00 5.0 0.9 75   32 18 24.1 100.44     LegendNANA
11:00 5.5 0.3 69   33 19 24.1 100.38     Mostly Cloudy
12:00 5.0 0.2 71   30 16 24.1 100.34     LegendNANA
13:00 5.1 0.2 70   30 11 24.1 100.28     LegendNANA
14:00 5.5 0.3 69   30 9 24.1 100.24     Cloudy
15:00 4.9 -0.1 70   31 13 24.1 100.20     LegendNANA
16:00 4.4 0.2 75   28 4 24.1 100.18     LegendNANA
17:00 3.0 0.2 82   2 7 24.1 100.08     Cloudy
18:00 2.2 0.4 88   21 5 24.1 100.01     LegendNANA
19:00 1.4 0.1 91   3 5 24.1 99.93     LegendNANA
20:00 1.7 0.0 88   2 8 24.1 99.82     Cloudy
21:00 0.5 -0.9 90   9 5 24.1 99.70     LegendNANA
22:00 1.8 -0.5 84   8 6 24.1 99.53     LegendNANA
23:00 2.9 0.8 86   7 14 24.1 99.36     Cloudy

Notes on Data Quality.

Legend

  • E = Estimated
  • M = Missing
  • NA = Not Available*
  • [empty] = Indicates an unobserved value
Date modified: